Dauntless Aviation
Airports North America Canada
CYLW
YLW

Kelowna International Airport

Kelowna, BC, CANADA

Airport Info
Suggest Updated Information for this Airport

Location

Latitude / Longitude: 49°53'0"N / 119°29'35"W
  49°53.016'N / 119°29.598'W
  49.8836 / -119.4933

Nearby radio navigation aids

EX RUTLAND NDB. 335.5° 1.0nm from EX to field.
LW KELOWNA NDB. 147.1° 6.5nm from LW to field.

Runway Information

Runway 16 /34

Dimensions: 7300 x 200 ft.
Surface: ASP
 
Runway 16
Runway 34
Latitude: 49.966 49.946278
Longitude: -119.378961 -119.376461
Elevation: 1409 ft. 1409 ft.
Runway true heading: 166.6 346.6
 

Instrument Procedures

  Aerodrome Chart
  Parking Areas
  CAC: Aerodrome Chart
  CAC: Parking Areas - Apron I
  CAC: Parking Areas - Apron III

IAPs (Instrument Approach Procedures)

  CFS: KELOWNA VFR Terminal Procedures Chart
  CFS: KELOWNA VFR Terminal Procedures Chart - Night Circuit Procedure
  CFS: Aerodrome Information
  CFS: Aerodrome Information (Part 2)
  DATBO ONE ARR (DATBO.DATBO 1)
  LENUR ONE ARR (LENUR.LENUR 1)
  RNAV (GNSS) A
  NDB B (GNSS)
  ILS/DME 1 Rwy 16
  Night Circuit Procedures
  KELOWNA FIVE DEP (YLW 5.)

Departure Procedures

  Departure Procedure
Satellite photo at:
Airport distance calculator
From:
Weather Reports

METAR

CYLW

CYLW 080700Z AUTO 00000KT 9SM OVC048 M01/M02 A3065 RMK SLP403
CWUS
20.0nm S
CWUS 080700Z AUTO 27003KT M01/M03 RMK AO1 SLP401 T10081026 58002
CWJV
21.6nm N
CWJV 080700Z AUTO 09001KT M02/M03 RMK AO1 SLP398 T10171029 56005
CYYF
25.3nm S
CYYF 080700Z 03003KT 330V040 15SM SCT065 M01/M02 A3067 RMK SC4 SLP405

TAF

CYLW
TAF CYLW 080638Z 0807/0819 VRB03KT P6SM FEW020 BKN040 TEMPO 0810/0819 BKN015 OVC040 RMK FCST BASED ON AUTO OBS. NXT FCST BY 081300Z
CYYF
25.3nm S
TAF CYYF 080638Z 0807/0819 VRB03KT P6SM SCT060 SCT200 TEMPO 0807/0819 SCT015 BKN060 RMK NXT FCST BY 081300Z
Safelog

 

Dauntless Aviation

© 2007-2016 Dauntless Aviation, all rights reserved
Information provided via PilotNav comes from a variety of official and unofficial data sources. As errors are possible, do not use PilotNav for primary flight planning purposes. Verify any information that you receive via PilotNav with current and canonical charts and other official documents. The material in this database is subject to database copyrights held by Dauntless Aviation and may not be copied without the express permission of Dauntless Aviation - licenses for use of part of all of this data are available for purchase; enquire via the Dauntless Aviation helpdesk. A number of mechanisms and markers exist in the database to protect against and identify infringement / copyright. Automated queries against this website are stictly prohibited, and all activity is logged and analyzed.